| time (UTC) | temp C | wind direction | speed KPH | gust KPH | rain 1hr cm | rain 24hr cm | rain mn cm | humidity % | barometer mb |
| 20260503004019 | 7 | 326 | 4.8 | 9.7 | 0.00 | 0.71 | 0.03 | 73 | 1017.1 |
| 20260503003024 | 7 | 319 | 3.2 | 6.4 | 0.00 | 0.71 | 0.03 | 72 | 1017.1 |
| 20260503002042 | 8 | 334 | 4.8 | 8.0 | 0.00 | 0.71 | 0.03 | 71 | 1017.0 |
| 20260503001021 | 8 | 349 | 4.8 | 9.7 | 0.00 | 0.71 | 0.03 | 70 | 1016.8 |
| 20260503000041 | 8 | 326 | 8.0 | 9.7 | 0.00 | 0.71 | 0.03 | 69 | 1016.6 |
| 20260502235018 | 9 | 329 | 4.8 | 6.4 | 0.00 | 0.71 | 0.03 | 68 | 1016.7 |
| 20260502234017 | 9 | 331 | 6.4 | 14.5 | 0.00 | 0.71 | 0.03 | 67 | 1016.7 |
| 20260502233016 | 9 | 340 | 11.3 | 14.5 | 0.00 | 0.71 | 0.03 | 67 | 1016.6 |
| 20260502232020 | 10 | 299 | 8.0 | 12.9 | 0.00 | 0.71 | 0.03 | 66 | 1016.5 |
| 20260502231045 | 10 | 302 | 8.0 | 12.9 | 0.00 | 0.71 | 0.03 | 66 | 1016.3 |
| 20260502230029 | 10 | 318 | 8.0 | 16.1 | 0.00 | 0.71 | 0.03 | 62 | 1016.2 |
| 20260502225016 | 10 | 320 | 6.4 | 11.3 | 0.00 | 0.71 | 0.03 | 61 | 1016.1 |
| 20260502224021 | 11 | 351 | 8.0 | 12.9 | 0.00 | 0.71 | 0.03 | 60 | 1016.0 |
| 20260502223026 | 11 | 312 | 6.4 | 14.5 | 0.00 | 0.71 | 0.03 | 59 | 1015.9 |
| 20260502222031 | 11 | 291 | 8.0 | 14.5 | 0.00 | 0.71 | 0.03 | 57 | 1015.9 |
| 20260502221018 | 11 | 292 | 11.3 | 16.1 | 0.00 | 0.71 | 0.03 | 57 | 1015.9 |
| 20260502220022 | 11 | 321 | 8.0 | 11.3 | 0.00 | 0.71 | 0.03 | 56 | 1016.0 |
| 20260502215047 | 11 | 302 | 8.0 | 14.5 | 0.00 | 0.71 | 0.03 | 55 | 1015.9 |
| 20260502214052 | 12 | 279 | 9.7 | 14.5 | 0.00 | 0.71 | 0.03 | 54 | 1015.8 |
| 20260502213018 | 12 | 334 | 8.0 | 11.3 | 0.00 | 0.71 | 0.03 | 54 | 1015.7 |
| 20260502212024 | 12 | 301 | 6.4 | 11.3 | 0.00 | 0.71 | 0.03 | 54 | 1015.6 |
| 20260502211029 | 12 | 321 | 8.0 | 14.5 | 0.00 | 0.71 | 0.03 | 55 | 1015.5 |
| 20260502210015 | 12 | 292 | 8.0 | 11.3 | 0.00 | 0.71 | 0.03 | 54 | 1015.5 |
| 20260502205020 | 12 | 306 | 9.7 | 14.5 | 0.00 | 0.71 | 0.03 | 55 | 1015.5 |
| 20260502204024 | 12 | 330 | 8.0 | 14.5 | 0.00 | 0.71 | 0.03 | 53 | 1015.5 |
| 20260502203029 | 12 | 308 | 8.0 | 12.9 | 0.00 | 0.71 | 0.03 | 54 | 1015.6 |
| 20260502202016 | 13 | 281 | 8.0 | 11.3 | 0.00 | 0.71 | 0.03 | 53 | 1015.5 |
| 20260502201022 | 13 | 303 | 8.0 | 11.3 | 0.00 | 0.71 | 0.03 | 54 | 1015.8 |
| 20260502200047 | 13 | 300 | 9.7 | 14.5 | 0.00 | 0.71 | 0.03 | 53 | 1015.9 |
| 20260502195030 | 13 | 301 | 9.7 | 14.5 | 0.00 | 0.71 | 0.03 | 53 | 1016.0 |
| 20260502194017 | 14 | 296 | 9.7 | 12.9 | 0.00 | 0.71 | 0.03 | 53 | 1016.1 |
| 20260502193022 | 13 | 300 | 11.3 | 20.9 | 0.00 | 0.71 | 0.03 | 55 | 1016.3 |
| 20260502192026 | 12 | 307 | 9.7 | 16.1 | 0.00 | 0.71 | 0.03 | 55 | 1016.4 |
| 20260502191033 | 12 | 311 | 8.0 | 11.3 | 0.00 | 0.71 | 0.03 | 56 | 1016.6 |
| 20260502190039 | 12 | 295 | 8.0 | 17.7 | 0.00 | 0.71 | 0.03 | 55 | 1016.6 |
| 20260502185043 | 12 | 306 | 4.8 | 8.0 | 0.00 | 0.71 | 0.03 | 52 | 1016.7 |
| 20260502184028 | 12 | 286 | 4.8 | 9.7 | 0.00 | 0.71 | 0.03 | 54 | 1016.7 |
| 20260502182019 | 12 | 8.0 | 8.0 | 0.00 | 0.71 | 0.03 | 58 | 1017.0 | |
| 20260502181024 | 12 | 268 | 6.4 | 8.0 | 0.00 | 0.71 | 0.03 | 56 | 1016.9 |
| 20260502164046 | 13 | 271 | 9.7 | 17.7 | 0.00 | 0.71 | 0.03 | 52 | 1017.3 |
| 20260502163017 | 12 | 287 | 4.8 | 8.0 | 0.00 | 0.71 | 0.03 | 52 | 1017.3 |
| 20260502162023 | 12 | 253 | 6.4 | 8.0 | 0.00 | 0.71 | 0.03 | 54 | 1017.3 |
| 20260502161021 | 12 | 314 | 6.4 | 8.0 | 0.00 | 0.71 | 0.03 | 53 | 1017.6 |
| 20260502152033 | 13 | 328 | 6.4 | 11.3 | 0.00 | 0.71 | 0.03 | 52 | 1017.6 |
| 20260502151020 | 13 | 275 | 9.7 | 16.1 | 0.00 | 0.71 | 0.03 | 57 | 1017.6 |
| 20260502123023 | 6 | 305 | 4.8 | 11.3 | 0.00 | 0.71 | 0.03 | 82 | 1017.9 |
| 20260502122028 | 6 | 289 | 4.8 | 8.0 | 0.00 | 0.71 | 0.03 | 83 | 1018.1 |
| 20260502121037 | 6 | 293 | 4.8 | 9.7 | 0.00 | 0.71 | 0.03 | 83 | 1018.1 |
| 20260502115024 | 5 | 274 | 4.8 | 8.0 | 0.00 | 0.71 | 0.03 | 87 | 1018.1 |
| 20260502114029 | 5 | 261 | 1.6 | 4.8 | 0.00 | 0.71 | 0.03 | 90 | 1018.1 |
| 20260502113037 | 5 | 266 | 3.2 | 6.4 | 0.00 | 0.71 | 0.03 | 91 | 1017.9 |
| 20260502112042 | 4 | 227 | 1.6 | 3.2 | 0.00 | 0.71 | 0.03 | 95 | 1018.1 |
| 20260502111025 | 3 | 231 | 3.2 | 6.4 | 0.00 | 0.71 | 0.03 | 96 | 1018.1 |
| 20260502110032 | 3 | 275 | 1.6 | 6.4 | 0.00 | 0.71 | 0.03 | 97 | 1018.1 |
| 20260502105017 | 3 | 275 | 3.2 | 4.8 | 0.00 | 0.71 | 0.03 | 99 | 1018.1 |
| 20260502104023 | 2 | 294 | 1.6 | 3.2 | 0.00 | 0.71 | 0.03 | 98 | 1018.1 |
| 20260502103026 | 2 | 0.0 | 3.2 | 0.00 | 0.71 | 0.03 | 98 | 1018.1 | |
| 20260502102032 | 2 | 270 | 0.0 | 1.6 | 0.00 | 0.71 | 0.03 | 98 | 1017.9 |
| 20260502101018 | 3 | 181 | 3.2 | 3.2 | 0.00 | 0.71 | 0.03 | 98 | 1017.8 |
| 20260502091028 | 5 | 286 | 4.8 | 8.0 | 0.00 | 0.71 | 0.03 | 92 | 1017.4 |
| 20260502071032 | 7 | 272 | 4.8 | 11.3 | 0.00 | 0.71 | 0.03 | 86 | 1016.5 |
| 20260502070019 | 7 | 264 | 6.4 | 9.7 | 0.00 | 0.71 | 0.03 | 86 | 1016.4 |
| 20260502065025 | 6 | 247 | 6.4 | 9.7 | 0.00 | 0.71 | 0.03 | 88 | 1016.2 |
| 20260502064028 | 7 | 205 | 1.6 | 4.8 | 0.00 | 0.71 | 0.03 | 87 | 1016.1 |
| 20260502063033 | 7 | 245 | 6.4 | 8.0 | 0.00 | 0.71 | 0.03 | 85 | 1016.2 |
| 20260502062020 | 7 | 245 | 6.4 | 9.7 | 0.00 | 0.71 | 0.03 | 86 | 1016.3 |
| 20260502061025 | 7 | 236 | 6.4 | 11.3 | 0.00 | 0.71 | 0.03 | 86 | 1016.3 |
| 20260502060030 | 7 | 237 | 6.4 | 9.7 | 0.00 | 0.71 | 0.03 | 85 | 1016.2 |
| 20260502055016 | 8 | 234 | 8.0 | 11.3 | 0.00 | 0.71 | 0.03 | 85 | 1016.2 |
| 20260502054022 | 8 | 243 | 9.7 | 12.9 | 0.00 | 0.71 | 0.03 | 86 | 1016.2 |
| 20260502053025 | 8 | 244 | 11.3 | 14.5 | 0.03 | 0.71 | 0.03 | 86 | 1016.1 |
| 20260502052030 | 8 | 234 | 8.0 | 11.3 | 0.03 | 0.71 | 0.03 | 88 | 1016.4 |
| 20260502051017 | 9 | 248 | 8.0 | 12.9 | 0.03 | 0.71 | 0.03 | 86 | 1016.3 |
| 20260502045026 | 9 | 266 | 8.0 | 11.3 | 0.03 | 0.71 | 0.03 | 92 | 1016.4 |
| 20260502044052 | 8 | 251 | 9.7 | 14.5 | 0.03 | 0.71 | 0.03 | 96 | 1016.5 |
| 20260502043018 | 8 | 245 | 4.8 | 8.0 | 0.00 | 0.69 | 0.00 | 98 | 1016.3 |
| 20260502042023 | 8 | 212 | 3.2 | 6.4 | 0.00 | 0.69 | 0.00 | 97 | 1016.3 |
| 20260502041027 | 8 | 207 | 3.2 | 6.4 | 0.69 | 0.69 | 0.00 | 98 | 1016.3 |
| 20260502040032 | 8 | 190 | 3.2 | 6.4 | 0.69 | 0.69 | 0.00 | 98 | 1016.1 |
| 20260502035019 | 8 | 216 | 1.6 | 4.8 | 0.69 | 0.69 | 0.69 | 98 | 1016.1 |
| 20260502034043 | 8 | 190 | 1.6 | 3.2 | 0.69 | 0.69 | 0.69 | 98 | 1016.0 |
| 20260502033048 | 8 | 218 | 3.2 | 4.8 | 0.69 | 0.69 | 0.69 | 95 | 1016.0 |
| 20260502032033 | 9 | 214 | 3.2 | 4.8 | 0.69 | 0.69 | 0.69 | 96 | 1016.1 |
| 20260502031019 | 9 | 204 | 1.6 | 3.2 | 0.00 | 0.00 | 0.00 | 99 | 1016.0 |
| 20260502030044 | 9 | 105 | 1.6 | 4.8 | 0.00 | 0.00 | 0.00 | 99 | 1016.0 |
| 20260502025029 | 9 | 216 | 1.6 | 6.4 | 0.00 | 0.00 | 0.00 | 97 | 1016.1 |
| 20260502024016 | 10 | 153 | 1.6 | 3.2 | 0.00 | 0.00 | 0.00 | 95 | 1016.2 |
| 20260502023022 | 10 | 0.0 | 0.0 | 0.00 | 0.00 | 0.00 | 91 | 1016.0 | |
| 20260502022025 | 10 | 203 | 1.6 | 4.8 | 0.00 | 0.00 | 0.00 | 88 | 1016.1 |
| 20260502021110 | 10 | 113 | 0.0 | 3.2 | 0.00 | 0.00 | 0.00 | 88 | 1015.8 |
| 20260502020017 | 10 | 171 | 1.6 | 3.2 | 0.00 | 0.00 | 0.00 | 88 | 1016.0 |
| 20260502015021 | 10 | 0.0 | 0.0 | 0.00 | 0.00 | 0.00 | 88 | 1015.9 | |
| 20260502014026 | 10 | 338 | 0.0 | 3.2 | 0.00 | 0.00 | 0.00 | 88 | 1015.7 |
| 20260502013031 | 10 | 76 | 3.2 | 6.4 | 0.00 | 0.00 | 0.00 | 88 | 1015.6 |
| 20260502012018 | 10 | 18 | 4.8 | 9.7 | 0.00 | 0.00 | 0.00 | 91 | 1015.1 |
| 20260502011023 | 9 | 17 | 1.6 | 4.8 | 0.00 | 0.00 | 0.00 | 95 | 1014.7 |
| 20260502010027 | 9 | 259 | 3.2 | 3.2 | 0.00 | 0.00 | 0.00 | 95 | 1014.2 |
| 20260502005046 | 10 | 0.0 | 0.0 | 0.00 | 0.00 | 0.00 | 93 | 1014.1 |